Change the Weather History Date:

Saturday, June 22, 2013

  Actual Average Record
Temperature  
Mean Temperature 54 °F 60 °F  
Max Temperature 67 °F 75 °F 91 °F (2004)
Min Temperature 40 °F 45 °F 38 °F (2014)
Degree Days  
Heating Degree Days 11 6  
Month to date heating degree days 178 162  
Since 1 June heating degree days 178 162  
Since 1 July heating degree days 6991 7376  
Cooling Degree Days 0 1  
Month to date cooling degree days 2 5  
Year to date cooling degree days 5 8  
Since 1 June cooling degree days 2 5  
Growing Degree Days 4 (Base 50)    
Moisture  
Dew Point 46 °F    
Average Humidity 74    
Maximum Humidity 100    
Minimum Humidity 48    
Precipitation  
Precipitation 0.00 in 0.06 in 0.10 in (2012)
Month to date precipitation 2.11 1.53  
Year to date precipitation 8.48 11.27  
Sea Level Pressure  
Sea Level Pressure 30.07 in    
Wind  
Wind Speed 2 mph (ESE)    
Max Wind Speed 10 mph    
Max Gust Speed 22 mph    
Visibility 7 miles    
Events Fog    
T = Trace of Precipitation, MM = Missing Value Source: NWS Daily Summary

Daily Weather History Graph

Daily Weather History Graph

Search for Another Location

Airport or City:

Trip Planner

Search our weather history database for the weather conditions in past years. The results will help you decide how hot, cold, wet, or windy it might be!

Date:

Astronomy

Jun. 22, 2013 Rise Set
Actual Time 4:50 AM PDT 8:53 PM PDT
Civil Twilight 4:09 AM PDT 9:34 PM PDT
Nautical Twilight 3:11 AM PDT 10:31 PM PDT
Astronomical Twilight 1:32 AM PDT 12:10 AM PDT
Moon 8:07 PM PDT (6/22) 4:13 AM PDT (6/22)
Length of Visible Light 17h 24m
Length of Day
16h 02m
Waxing Gibbous, 99% of the Moon is Illuminated
Jun 22
Waxing Gibbous
Jun 23
Full
Jun 29
Last Quarter
Jul 8
New
Jul 15
First Quarter

Hourly Weather History & Observations

Time (PDT) Temp. Windchill Dew Point Humidity Pressure Visibility Wind Dir Wind Speed Gust Speed Precip Events Conditions
12:53 AM 46.0 °F 44.8 °F 45.0 °F 96% 30.10 in 10.0 mi NE 3.5 mph - N/A   Partly Cloudy
1:36 AM 44.6 °F - 44.6 °F 100% 30.09 in 1.2 mi Calm Calm - N/A   Partly Cloudy
1:38 AM 42.8 °F - 42.8 °F 100% 30.09 in 0.8 mi Calm Calm - N/A   Mist
1:53 AM 44.1 °F - 43.0 °F 96% 30.10 in 0.2 mi Calm Calm - N/A Fog Fog
2:25 AM 42.8 °F 41.1 °F 41.0 °F 93% 30.09 in 1.5 mi North 3.5 mph - N/A   Partly Cloudy
2:28 AM 42.8 °F 41.1 °F 42.8 °F 100% 30.09 in 3.0 mi NNE 3.5 mph - N/A   Partly Cloudy
2:53 AM 44.1 °F 42.5 °F 43.0 °F 96% 30.10 in 3.0 mi ENE 3.5 mph - N/A   Clear
3:01 AM 42.8 °F 41.1 °F 41.0 °F 93% 30.09 in 2.5 mi NE 3.5 mph - N/A   Clear
3:10 AM 42.8 °F - 42.8 °F 100% 30.09 in 8.0 mi Calm Calm - N/A   Clear
3:17 AM 42.8 °F - 42.8 °F 100% 30.09 in 1.8 mi Calm Calm - N/A   Clear
3:20 AM 42.8 °F - 42.8 °F 100% 30.09 in 0.8 mi Calm Calm - N/A   Mist
3:53 AM 41.0 °F - 39.9 °F 96% 30.10 in 0.5 mi Calm Calm - N/A Fog Fog
4:53 AM 41.0 °F - 39.9 °F 96% 30.10 in 0.2 mi Calm Calm - N/A Fog Fog
5:12 AM 41.0 °F - 39.2 °F 93% 30.10 in 0.5 mi Calm Calm - N/A Fog Fog
5:31 AM 42.8 °F - 42.8 °F 100% 30.10 in 2.0 mi Calm Calm - N/A   Overcast
5:38 AM 44.6 °F - 44.6 °F 100% 30.10 in 10.0 mi Calm Calm - N/A   Overcast
5:53 AM 46.0 °F - 45.0 °F 96% 30.11 in 10.0 mi Calm Calm - N/A   Overcast
6:53 AM 48.9 °F - 48.0 °F 97% 30.10 in 10.0 mi Calm Calm - N/A   Overcast
7:19 AM 51.8 °F - 48.2 °F 88% 30.10 in 10.0 mi Calm Calm - N/A   Overcast
7:28 AM 51.8 °F - 48.2 °F 88% 30.10 in 10.0 mi Calm Calm - N/A   Overcast
7:42 AM 51.8 °F - 48.2 °F 88% 30.10 in 10.0 mi SE 3.5 mph - N/A   Overcast
7:53 AM 51.1 °F - 48.0 °F 89% 30.10 in 10.0 mi Calm Calm - N/A   Overcast
8:10 AM 53.6 °F - 48.2 °F 82% 30.10 in 10.0 mi SE 3.5 mph - N/A   Mostly Cloudy
8:22 AM 53.6 °F - 48.2 °F 82% 30.10 in 10.0 mi Calm Calm - N/A   Overcast
8:53 AM 55.0 °F - 48.9 °F 80% 30.10 in 10.0 mi South 3.5 mph - N/A   Overcast
9:53 AM 57.0 °F - 50.0 °F 77% 30.10 in 10.0 mi Calm Calm - N/A   Overcast
10:53 AM 59.0 °F - 50.0 °F 72% 30.09 in 10.0 mi SSW 3.5 mph - N/A   Overcast
11:53 AM 63.0 °F - 46.9 °F 56% 30.08 in 10.0 mi SW 8.1 mph - N/A   Overcast
12:53 PM 63.0 °F - 48.0 °F 58% 30.07 in 10.0 mi Calm Calm - N/A   Overcast
1:53 PM 66.0 °F - 48.9 °F 54% 30.06 in 10.0 mi Variable 5.8 mph - N/A   Overcast
2:53 PM 66.0 °F - 48.9 °F 54% 30.05 in 10.0 mi WSW 6.9 mph - N/A   Overcast
3:53 PM 64.9 °F - 48.9 °F 56% 30.04 in 10.0 mi SSW 3.5 mph - N/A   Overcast
4:53 PM 66.9 °F - 48.0 °F 51% 30.02 in 10.0 mi South 6.9 mph - N/A   Overcast
5:53 PM 66.0 °F - 48.9 °F 54% 30.00 in 10.0 mi NNE 3.5 mph - N/A   Scattered Clouds
6:53 PM 66.0 °F - 46.9 °F 50% 29.98 in 10.0 mi Calm Calm - N/A   Clear
7:53 PM 63.0 °F - 51.1 °F 65% 29.98 in 10.0 mi Calm Calm - N/A   Partly Cloudy
8:53 PM 55.9 °F - 52.0 °F 87% 29.98 in 10.0 mi North - - N/A   Clear
9:53 PM 53.1 °F - 50.0 °F 89% 29.99 in 10.0 mi Calm Calm - N/A   Clear
10:53 PM 51.1 °F - 48.0 °F 89% 29.98 in 10.0 mi Calm Calm - N/A   Clear
11:53 PM 50.0 °F - 46.9 °F 89% 29.96 in 10.0 mi NNE 3.5 mph - N/A   Clear